| time (UTC) | temp F | wind direction | speed knots | gust knots | rain 1hr in | rain 24hr in | rain mn in | humidity % | barometer mb |
| 20260903043050 | 82 | 0.0 | 0.0 | 0.00 | 0.00 | 0.00 | 78 | 1014.5 | |
| 20260903042610 | 82 | 0.0 | 0.0 | 0.00 | 0.00 | 0.00 | 77 | 1014.5 | |
| 20260903042108 | 82 | 244 | 3.5 | 5.2 | 0.00 | 0.00 | 0.00 | 77 | 1014.4 |
| 20260903041545 | 82 | 0.0 | 0.0 | 0.00 | 0.00 | 0.00 | 77 | 1014.4 | |
| 20260903041045 | 82 | 286 | 5.2 | 9.6 | 0.00 | 0.00 | 0.00 | 78 | 1014.4 |
| 20260903040342 | 82 | 0.0 | 0.0 | 0.00 | 0.00 | 0.00 | 78 | 1014.3 | |
| 20260903035920 | 82 | 0.0 | 0.0 | 0.00 | 0.00 | 0.00 | 78 | 1014.2 | |
| 20260903035339 | 82 | 241 | 6.1 | 7.0 | 0.00 | 0.00 | 0.00 | 77 | 1014.2 |
| 20260903034837 | 82 | 231 | 5.2 | 7.8 | 0.00 | 0.00 | 0.00 | 78 | 1014.0 |
| 20260903034355 | 82 | 229 | 4.3 | 6.1 | 0.00 | 0.00 | 0.00 | 78 | 1013.9 |
| 20260903033834 | 82 | 0.0 | 0.0 | 0.00 | 0.00 | 0.00 | 78 | 1013.8 | |
| 20260903033332 | 82 | 228 | 4.3 | 6.1 | 0.00 | 0.00 | 0.00 | 78 | 1013.9 |
| 20260903032630 | 82 | 222 | 3.5 | 5.2 | 0.00 | 0.00 | 0.00 | 79 | 1013.8 |
| 20260903032129 | 82 | 253 | 5.2 | 7.0 | 0.00 | 0.00 | 0.00 | 79 | 1013.8 |
| 20260903031626 | 82 | 247 | 4.3 | 6.1 | 0.00 | 0.00 | 0.00 | 79 | 1013.8 |
| 20260903031146 | 81 | 0.0 | 0.0 | 0.00 | 0.00 | 0.00 | 80 | 1013.8 | |
| 20260903030624 | 81 | 0.0 | 0.0 | 0.00 | 0.00 | 0.00 | 79 | 1013.7 | |
| 20260903030022 | 81 | 247 | 5.2 | 6.1 | 0.00 | 0.00 | 0.00 | 79 | 1013.8 |
| 20260903025540 | 81 | 0.0 | 0.0 | 0.00 | 0.00 | 0.00 | 80 | 1013.8 | |
| 20260903024918 | 80 | 247 | 3.5 | 5.2 | 0.00 | 0.00 | 0.00 | 80 | 1013.8 |
| 20260903024516 | 80 | 247 | 3.5 | 4.3 | 0.00 | 0.00 | 0.00 | 81 | 1013.8 |
| 20260903023915 | 79 | 0.0 | 0.0 | 0.00 | 0.00 | 0.00 | 84 | 1013.7 | |
| 20260903023413 | 79 | 0.0 | 0.0 | 0.00 | 0.00 | 0.00 | 86 | 1013.7 | |
| 20260903022912 | 78 | 0.0 | 0.0 | 0.00 | 0.00 | 0.00 | 89 | 1013.6 | |
| 20260903022409 | 78 | 0.0 | 0.0 | 0.00 | 0.00 | 0.00 | 89 | 1013.8 | |
| 20260903021908 | 78 | 0.0 | 0.0 | 0.00 | 0.00 | 0.00 | 89 | 1014.0 | |
| 20260903021206 | 78 | 0.0 | 0.0 | 0.00 | 0.00 | 0.00 | 87 | 1014.2 | |
| 20260903020804 | 78 | 0.0 | 0.0 | 0.00 | 0.00 | 0.00 | 87 | 1014.4 | |
| 20260903020303 | 79 | 0.0 | 0.0 | 0.00 | 0.00 | 0.00 | 87 | 1014.3 | |
| 20260903015903 | 79 | 0.0 | 0.0 | 0.00 | 0.00 | 0.00 | 87 | 1014.3 | |
| 20260903015259 | 79 | 0.0 | 0.0 | 0.00 | 0.00 | 0.00 | 87 | 1014.3 | |
| 20260903014758 | 79 | 0.0 | 0.0 | 0.00 | 0.00 | 0.00 | 87 | 1014.2 | |
| 20260903014257 | 79 | 0.0 | 0.0 | 0.00 | 0.00 | 0.00 | 87 | 1014.3 | |
| 20260903013816 | 79 | 0.0 | 0.0 | 0.00 | 0.00 | 0.00 | 86 | 1014.3 | |
| 20260903013254 | 80 | 0.0 | 0.0 | 0.00 | 0.00 | 0.00 | 86 | 1014.2 | |
| 20260903012751 | 80 | 0.0 | 0.0 | 0.00 | 0.00 | 0.00 | 85 | 1014.2 | |
| 20260903012310 | 80 | 0.0 | 0.0 | 0.00 | 0.00 | 0.00 | 85 | 1014.2 | |
| 20260903011827 | 80 | 0.0 | 0.0 | 0.00 | 0.00 | 0.00 | 85 | 1014.2 | |
| 20260903011146 | 81 | 0.0 | 0.0 | 0.00 | 0.00 | 0.00 | 83 | 1014.1 | |
| 20260903010644 | 81 | 0.0 | 0.0 | 0.00 | 0.00 | 0.00 | 82 | 1014.1 | |
| 20260903010323 | 81 | 0.0 | 0.0 | 0.00 | 0.00 | 0.00 | 83 | 1014.0 | |
| 20260903005641 | 82 | 0.0 | 0.0 | 0.00 | 0.00 | 0.00 | 81 | 1014.0 | |
| 20260903005139 | 82 | 0.0 | 0.0 | 0.00 | 0.00 | 0.00 | 77 | 1013.9 | |
| 20260903004658 | 82 | 0.0 | 0.0 | 0.00 | 0.00 | 0.00 | 76 | 1013.9 | |
| 20260903004136 | 83 | 0.0 | 0.0 | 0.00 | 0.00 | 0.00 | 75 | 1013.9 | |
| 20260903003635 | 83 | 0.0 | 0.0 | 0.00 | 0.00 | 0.00 | 78 | 1013.7 | |
| 20260903003133 | 84 | 0.0 | 0.0 | 0.00 | 0.00 | 0.00 | 77 | 1013.6 | |
| 20260903002631 | 85 | 0.0 | 0.0 | 0.00 | 0.00 | 0.00 | 71 | 1013.6 | |
| 20260903002029 | 85 | 0.0 | 0.0 | 0.00 | 0.00 | 0.00 | 69 | 1013.7 | |
| 20260903001528 | 86 | 0.0 | 0.0 | 0.00 | 0.00 | 0.00 | 67 | 1013.6 | |
| 20260903001047 | 86 | 0.0 | 0.0 | 0.00 | 0.00 | 0.00 | 65 | 1013.6 | |
| 20260903000625 | 87 | 0.0 | 0.0 | 0.00 | 0.00 | 0.00 | 64 | 1013.6 | |
| 20260903000023 | 87 | 0.0 | 0.0 | 0.00 | 0.00 | 0.00 | 64 | 1013.6 | |
| 20260902235521 | 87 | 0.0 | 0.0 | 0.00 | 0.00 | 0.00 | 64 | 1013.6 | |
| 20260902235019 | 88 | 0.0 | 0.0 | 0.00 | 0.00 | 0.00 | 62 | 1013.7 | |
| 20260902234618 | 88 | 0.0 | 0.0 | 0.00 | 0.00 | 0.00 | 62 | 1013.6 | |
| 20260902234016 | 88 | 0.0 | 0.0 | 0.00 | 0.00 | 0.00 | 61 | 1013.6 | |
| 20260902233515 | 89 | 247 | 3.5 | 4.3 | 0.00 | 0.00 | 0.00 | 61 | 1013.7 |
| 20260902233013 | 89 | 0.0 | 0.0 | 0.00 | 0.00 | 0.00 | 62 | 1013.6 | |
| 20260902232310 | 90 | 0.0 | 0.0 | 0.00 | 0.00 | 0.00 | 59 | 1013.6 | |
| 20260902231829 | 90 | 247 | 4.3 | 6.1 | 0.00 | 0.00 | 0.00 | 58 | 1013.7 |
| 20260902231308 | 90 | 247 | 5.2 | 6.1 | 0.00 | 0.00 | 0.00 | 57 | 1013.7 |
| 20260902230807 | 91 | 231 | 7.0 | 8.7 | 0.00 | 0.00 | 0.00 | 57 | 1013.6 |
| 20260902230324 | 91 | 192 | 4.3 | 5.2 | 0.00 | 0.00 | 0.00 | 57 | 1013.6 |
| 20260902225803 | 91 | 191 | 3.5 | 3.5 | 0.00 | 0.00 | 0.00 | 57 | 1013.6 |
| 20260902225302 | 92 | 201 | 5.2 | 7.0 | 0.00 | 0.00 | 0.00 | 55 | 1013.5 |
| 20260902224658 | 92 | 243 | 3.5 | 4.3 | 0.00 | 0.00 | 0.00 | 56 | 1013.5 |
| 20260902224157 | 92 | 0.0 | 0.0 | 0.00 | 0.00 | 0.00 | 55 | 1013.5 | |
| 20260902223655 | 92 | 0.0 | 0.0 | 0.00 | 0.00 | 0.00 | 55 | 1013.5 | |
| 20260902223254 | 93 | 239 | 3.5 | 3.5 | 0.00 | 0.00 | 0.00 | 53 | 1013.5 |
| 20260902222652 | 93 | 0.0 | 0.0 | 0.00 | 0.00 | 0.00 | 52 | 1013.5 | |
| 20260902222150 | 93 | 239 | 4.3 | 5.2 | 0.00 | 0.00 | 0.00 | 52 | 1013.6 |
| 20260902221649 | 92 | 240 | 3.5 | 5.2 | 0.00 | 0.00 | 0.00 | 53 | 1013.7 |
| 20260902221147 | 92 | 260 | 4.3 | 6.1 | 0.00 | 0.00 | 0.00 | 52 | 1013.7 |
| 20260902220646 | 92 | 265 | 6.1 | 7.8 | 0.00 | 0.00 | 0.00 | 52 | 1013.7 |
| 20260902220144 | 92 | 214 | 3.5 | 5.2 | 0.00 | 0.00 | 0.00 | 55 | 1013.7 |
| 20260902215643 | 92 | 202 | 6.1 | 7.8 | 0.00 | 0.00 | 0.00 | 52 | 1013.6 |
| 20260902215221 | 92 | 169 | 4.3 | 7.0 | 0.00 | 0.00 | 0.00 | 54 | 1013.7 |
| 20260902214639 | 93 | 233 | 6.1 | 7.8 | 0.00 | 0.00 | 0.00 | 56 | 1013.7 |
| 20260902214157 | 93 | 208 | 5.2 | 7.0 | 0.00 | 0.00 | 0.00 | 55 | 1013.6 |
| 20260902213736 | 93 | 214 | 6.1 | 8.7 | 0.00 | 0.00 | 0.00 | 52 | 1013.8 |
| 20260902213134 | 93 | 200 | 6.1 | 9.6 | 0.00 | 0.00 | 0.00 | 51 | 1013.8 |
| 20260902212632 | 92 | 221 | 4.3 | 6.1 | 0.00 | 0.00 | 0.00 | 53 | 1013.9 |
| 20260902212131 | 92 | 236 | 6.1 | 8.7 | 0.00 | 0.00 | 0.00 | 53 | 1013.9 |
| 20260902211630 | 92 | 201 | 2.6 | 2.6 | 0.00 | 0.00 | 0.00 | 54 | 1013.9 |
| 20260902211127 | 93 | 234 | 5.2 | 6.1 | 0.00 | 0.00 | 0.00 | 55 | 1014.0 |
| 20260902210625 | 93 | 233 | 5.2 | 7.0 | 0.00 | 0.00 | 0.00 | 54 | 1014.0 |
| 20260902210144 | 92 | 262 | 5.2 | 5.2 | 0.00 | 0.00 | 0.00 | 55 | 1014.1 |
| 20260902205522 | 92 | 243 | 5.2 | 7.0 | 0.00 | 0.00 | 0.00 | 53 | 1014.2 |
| 20260902205021 | 92 | 244 | 6.1 | 7.8 | 0.00 | 0.00 | 0.00 | 54 | 1014.2 |
| 20260902204539 | 92 | 243 | 4.3 | 5.2 | 0.00 | 0.00 | 0.00 | 54 | 1014.3 |
| 20260902203836 | 92 | 259 | 5.2 | 6.1 | 0.00 | 0.00 | 0.00 | 53 | 1014.3 |
| 20260902203315 | 92 | 0.0 | 0.0 | 0.00 | 0.00 | 0.00 | 54 | 1014.3 | |
| 20260902202813 | 92 | 233 | 7.0 | 8.7 | 0.00 | 0.00 | 0.00 | 54 | 1014.5 |
| 20260902202311 | 92 | 228 | 7.0 | 7.8 | 0.00 | 0.00 | 0.00 | 52 | 1014.6 |
| 20260902201810 | 92 | 232 | 7.8 | 10.4 | 0.00 | 0.00 | 0.00 | 53 | 1014.7 |
| 20260902201307 | 92 | 243 | 7.8 | 8.7 | 0.00 | 0.00 | 0.00 | 53 | 1014.7 |
| 20260902200907 | 92 | 261 | 5.2 | 7.8 | 0.00 | 0.00 | 0.00 | 54 | 1014.7 |
| 20260902200406 | 92 | 180 | 3.5 | 3.5 | 0.00 | 0.00 | 0.00 | 54 | 1014.8 |
| 20260902195703 | 92 | 270 | 5.2 | 7.8 | 0.00 | 0.00 | 0.00 | 54 | 1014.8 |
| 20260902195221 | 92 | 266 | 6.1 | 8.7 | 0.00 | 0.00 | 0.00 | 53 | 1014.8 |
| 20260902194559 | 91 | 224 | 4.3 | 5.2 | 0.00 | 0.00 | 0.00 | 54 | 1014.9 |
| 20260902194059 | 91 | 205 | 6.1 | 7.0 | 0.00 | 0.00 | 0.00 | 54 | 1015.0 |
| 20260902193556 | 91 | 206 | 7.0 | 7.8 | 0.00 | 0.00 | 0.00 | 55 | 1015.1 |
| 20260902193054 | 91 | 213 | 3.5 | 4.3 | 0.00 | 0.00 | 0.00 | 54 | 1015.2 |
| 20260902192714 | 91 | 149 | 8.7 | 10.4 | 0.00 | 0.00 | 0.00 | 55 | 1015.3 |
| 20260902192051 | 91 | 251 | 6.1 | 7.0 | 0.00 | 0.00 | 0.00 | 55 | 1015.3 |
| 20260902191551 | 91 | 183 | 6.1 | 7.8 | 0.00 | 0.00 | 0.00 | 53 | 1015.3 |
| 20260902191048 | 91 | 248 | 3.5 | 4.3 | 0.00 | 0.00 | 0.00 | 54 | 1015.3 |
| 20260902190547 | 91 | 232 | 6.1 | 7.8 | 0.00 | 0.00 | 0.00 | 56 | 1015.3 |
| 20260902190105 | 91 | 197 | 5.2 | 7.8 | 0.00 | 0.00 | 0.00 | 57 | 1015.4 |
| 20260902185543 | 91 | 259 | 7.8 | 8.7 | 0.00 | 0.00 | 0.00 | 56 | 1015.4 |
| 20260902185041 | 91 | 245 | 7.0 | 8.7 | 0.00 | 0.00 | 0.00 | 55 | 1015.4 |
| 20260902184338 | 91 | 224 | 6.1 | 7.8 | 0.00 | 0.00 | 0.00 | 55 | 1015.4 |
| 20260902183837 | 91 | 231 | 3.5 | 3.5 | 0.00 | 0.00 | 0.00 | 57 | 1015.4 |
| 20260902183335 | 90 | 191 | 5.2 | 7.0 | 0.00 | 0.00 | 0.00 | 57 | 1015.3 |
| 20260902182830 | 90 | 223 | 4.3 | 4.3 | 0.00 | 0.00 | 0.00 | 58 | 1015.4 |
| 20260902182307 | 89 | 0.0 | 0.0 | 0.00 | 0.00 | 0.00 | 58 | 1015.4 | |
| 20260902181706 | 89 | 221 | 6.1 | 9.6 | 0.00 | 0.00 | 0.00 | 56 | 1015.5 |
| 20260902181124 | 90 | 253 | 4.3 | 6.1 | 0.00 | 0.00 | 0.00 | 56 | 1015.6 |
| 20260902180601 | 90 | 252 | 7.0 | 7.8 | 0.00 | 0.00 | 0.00 | 56 | 1015.7 |
| 20260902180101 | 89 | 248 | 5.2 | 7.0 | 0.00 | 0.00 | 0.00 | 56 | 1015.7 |
| 20260902175759 | 90 | 201 | 5.2 | 6.1 | 0.00 | 0.00 | 0.00 | 58 | 1015.8 |
| 20260902175057 | 90 | 217 | 7.0 | 7.8 | 0.00 | 0.00 | 0.00 | 57 | 1015.8 |
| 20260902174619 | 90 | 250 | 3.5 | 4.3 | 0.00 | 0.00 | 0.00 | 59 | 1015.9 |
| 20260902174017 | 89 | 252 | 4.3 | 5.2 | 0.00 | 0.00 | 0.00 | 60 | 1015.9 |
| 20260902173716 | 89 | 244 | 4.3 | 4.3 | 0.00 | 0.00 | 0.00 | 60 | 1016.0 |
| 20260902173013 | 89 | 266 | 5.2 | 7.0 | 0.00 | 0.00 | 0.00 | 61 | 1016.1 |
| 20260902172512 | 89 | 233 | 4.3 | 6.1 | 0.00 | 0.00 | 0.00 | 61 | 1016.1 |
| 20260902172010 | 89 | 230 | 4.3 | 6.1 | 0.00 | 0.00 | 0.00 | 59 | 1016.2 |
| 20260902171529 | 89 | 239 | 5.2 | 7.0 | 0.00 | 0.00 | 0.00 | 60 | 1016.1 |
| 20260902170906 | 88 | 250 | 7.8 | 8.7 | 0.00 | 0.00 | 0.00 | 60 | 1016.2 |
| 20260902170325 | 89 | 288 | 7.8 | 9.6 | 0.00 | 0.00 | 0.00 | 62 | 1016.3 |
| 20260902165904 | 88 | 256 | 4.3 | 6.1 | 0.00 | 0.00 | 0.00 | 61 | 1016.3 |
| 20260902165402 | 88 | 256 | 5.2 | 7.0 | 0.00 | 0.00 | 0.00 | 62 | 1016.4 |
| 20260902164900 | 88 | 254 | 7.0 | 7.8 | 0.00 | 0.00 | 0.00 | 62 | 1016.4 |
| 20260902164359 | 88 | 255 | 6.1 | 7.8 | 0.00 | 0.00 | 0.00 | 62 | 1016.5 |
| 20260902163857 | 88 | 250 | 4.3 | 5.2 | 0.00 | 0.00 | 0.00 | 61 | 1016.5 |
| 20260902163254 | 88 | 271 | 7.0 | 9.6 | 0.00 | 0.00 | 0.00 | 60 | 1016.6 |
| 20260902162753 | 88 | 208 | 5.2 | 7.8 | 0.00 | 0.00 | 0.00 | 62 | 1016.3 |
| 20260902162251 | 88 | 258 | 5.2 | 7.8 | 0.00 | 0.00 | 0.00 | 62 | 1016.3 |
| 20260902161850 | 88 | 202 | 7.0 | 8.7 | 0.00 | 0.00 | 0.00 | 63 | 1016.3 |
| 20260902161248 | 88 | 306 | 5.2 | 6.1 | 0.00 | 0.00 | 0.00 | 62 | 1016.3 |
| 20260902160746 | 87 | 265 | 6.1 | 8.7 | 0.00 | 0.00 | 0.00 | 63 | 1016.3 |
| 20260902160245 | 87 | 260 | 5.2 | 7.8 | 0.00 | 0.00 | 0.00 | 62 | 1016.3 |
| 20260902155742 | 87 | 231 | 5.2 | 7.0 | 0.00 | 0.00 | 0.00 | 63 | 1016.4 |
| 20260902155241 | 87 | 0.0 | 0.0 | 0.00 | 0.00 | 0.00 | 63 | 1016.4 | |
| 20260902154745 | 87 | 0.0 | 0.0 | 0.00 | 0.00 | 0.00 | 65 | 1016.3 | |
| 20260902154258 | 87 | 277 | 5.2 | 7.0 | 0.00 | 0.00 | 0.00 | 64 | 1016.4 |
| 20260902153636 | 87 | 267 | 6.1 | 7.0 | 0.00 | 0.00 | 0.00 | 65 | 1016.5 |
| 20260902153155 | 87 | 268 | 2.6 | 3.5 | 0.00 | 0.00 | 0.00 | 64 | 1016.6 |
| 20260902152633 | 86 | 309 | 5.2 | 6.1 | 0.00 | 0.00 | 0.00 | 66 | 1016.5 |
| 20260902152332 | 86 | 251 | 2.6 | 4.3 | 0.00 | 0.00 | 0.00 | 65 | 1016.5 |
| 20260902151711 | 85 | 287 | 5.2 | 7.0 | 0.00 | 0.00 | 0.00 | 66 | 1016.5 |
| 20260902151128 | 85 | 236 | 8.7 | 9.6 | 0.00 | 0.00 | 0.00 | 67 | 1016.5 |
| 20260902150627 | 85 | 223 | 4.3 | 5.2 | 0.00 | 0.00 | 0.00 | 67 | 1016.5 |
| 20260902150125 | 85 | 272 | 6.1 | 7.8 | 0.00 | 0.00 | 0.00 | 69 | 1016.5 |
| 20260902145623 | 85 | 272 | 3.5 | 3.5 | 0.00 | 0.00 | 0.00 | 68 | 1016.5 |
| 20260902145121 | 84 | 272 | 4.3 | 6.1 | 0.00 | 0.00 | 0.00 | 69 | 1016.5 |
| 20260902144619 | 84 | 273 | 4.3 | 6.1 | 0.00 | 0.00 | 0.00 | 69 | 1016.6 |
| 20260902144018 | 84 | 273 | 4.3 | 4.3 | 0.00 | 0.00 | 0.00 | 68 | 1016.5 |
| 20260902143515 | 84 | 0.0 | 0.0 | 0.00 | 0.00 | 0.00 | 69 | 1016.4 | |
| 20260902143014 | 83 | 281 | 5.2 | 7.0 | 0.00 | 0.00 | 0.00 | 70 | 1016.4 |
| 20260902142512 | 83 | 0.0 | 0.0 | 0.00 | 0.00 | 0.00 | 72 | 1016.4 | |
| 20260902142012 | 83 | 281 | 5.2 | 7.0 | 0.00 | 0.00 | 0.00 | 72 | 1016.4 |
| 20260902141510 | 83 | 0.0 | 0.0 | 0.00 | 0.00 | 0.00 | 74 | 1016.4 | |
| 20260902141008 | 82 | 282 | 5.2 | 6.1 | 0.00 | 0.00 | 0.00 | 75 | 1016.4 |
| 20260902140407 | 81 | 285 | 5.2 | 7.0 | 0.00 | 0.00 | 0.00 | 75 | 1016.3 |
| 20260902135905 | 81 | 285 | 3.5 | 4.3 | 0.00 | 0.00 | 0.00 | 78 | 1016.3 |
| 20260902135306 | 80 | 285 | 3.5 | 4.3 | 0.00 | 0.00 | 0.00 | 81 | 1016.2 |
| 20260902135001 | 80 | 0.0 | 0.0 | 0.00 | 0.00 | 0.00 | 81 | 1016.2 | |
| 20260902134259 | 79 | 285 | 2.6 | 2.6 | 0.00 | 0.00 | 0.00 | 82 | 1016.3 |
| 20260902133757 | 79 | 285 | 5.2 | 7.0 | 0.00 | 0.00 | 0.00 | 81 | 1016.3 |
| 20260902133255 | 79 | 0.0 | 0.0 | 0.00 | 0.00 | 0.00 | 84 | 1016.3 | |
| 20260902132753 | 79 | 285 | 4.3 | 6.1 | 0.00 | 0.00 | 0.00 | 85 | 1016.3 |
| 20260902132252 | 78 | 0.0 | 0.0 | 0.00 | 0.00 | 0.00 | 85 | 1016.4 | |
| 20260902131751 | 78 | 0.0 | 0.0 | 0.00 | 0.00 | 0.00 | 86 | 1016.5 | |
| 20260902131310 | 78 | 0.0 | 0.0 | 0.00 | 0.00 | 0.00 | 86 | 1016.6 | |
| 20260902130748 | 78 | 0.0 | 0.0 | 0.00 | 0.00 | 0.00 | 87 | 1016.5 | |
| 20260902130246 | 77 | 285 | 0.9 | 0.9 | 0.00 | 0.00 | 0.00 | 88 | 1016.6 |
| 20260902125704 | 77 | 0.0 | 0.0 | 0.00 | 0.00 | 0.00 | 89 | 1016.5 | |
| 20260902125042 | 77 | 0.0 | 0.0 | 0.00 | 0.00 | 0.00 | 89 | 1016.4 | |
| 20260902124540 | 77 | 0.0 | 0.0 | 0.00 | 0.00 | 0.00 | 89 | 1016.4 | |
| 20260902124039 | 76 | 0.0 | 0.0 | 0.00 | 0.00 | 0.00 | 90 | 1016.3 | |
| 20260902123557 | 76 | 0.0 | 0.0 | 0.00 | 0.00 | 0.00 | 91 | 1016.3 | |
| 20260902123035 | 76 | 0.0 | 0.0 | 0.00 | 0.00 | 0.00 | 92 | 1016.4 | |
| 20260902122534 | 76 | 0.0 | 0.0 | 0.00 | 0.00 | 0.00 | 93 | 1016.3 | |
| 20260902122032 | 75 | 0.0 | 0.0 | 0.00 | 0.00 | 0.00 | 94 | 1016.4 | |
| 20260902121731 | 75 | 0.0 | 0.0 | 0.00 | 0.00 | 0.00 | 95 | 1016.4 | |
| 20260902121028 | 74 | 0.0 | 0.0 | 0.00 | 0.00 | 0.00 | 96 | 1016.3 | |
| 20260902120548 | 74 | 0.0 | 0.0 | 0.00 | 0.00 | 0.00 | 96 | 1016.3 | |
| 20260902120025 | 74 | 0.0 | 0.0 | 0.00 | 0.00 | 0.00 | 96 | 1016.3 | |
| 20260902115523 | 74 | 0.0 | 0.0 | 0.00 | 0.00 | 0.00 | 96 | 1016.3 | |
| 20260902115042 | 74 | 0.0 | 0.0 | 0.00 | 0.00 | 0.00 | 96 | 1016.2 | |
| 20260902114520 | 74 | 0.0 | 0.0 | 0.00 | 0.00 | 0.00 | 96 | 1016.1 | |
| 20260902114018 | 74 | 0.0 | 0.0 | 0.00 | 0.00 | 0.00 | 96 | 1016.1 | |
| 20260902113417 | 74 | 0.0 | 0.0 | 0.00 | 0.00 | 0.00 | 95 | 1016.1 | |
| 20260902113016 | 74 | 0.0 | 0.0 | 0.00 | 0.00 | 0.00 | 95 | 1016.1 | |
| 20260902112414 | 74 | 0.0 | 0.0 | 0.00 | 0.00 | 0.00 | 95 | 1016.2 | |
| 20260902112033 | 74 | 0.0 | 0.0 | 0.00 | 0.00 | 0.00 | 95 | 1016.2 | |
| 20260902111431 | 74 | 0.0 | 0.0 | 0.00 | 0.00 | 0.00 | 94 | 1016.2 | |
| 20260902111008 | 74 | 0.0 | 0.0 | 0.00 | 0.00 | 0.00 | 94 | 1016.2 | |
| 20260902110507 | 74 | 0.0 | 0.0 | 0.00 | 0.00 | 0.00 | 95 | 1016.4 | |
| 20260902105705 | 74 | 0.0 | 0.0 | 0.00 | 0.00 | 0.00 | 94 | 1016.4 | |
| 20260902105103 | 75 | 0.0 | 0.0 | 0.00 | 0.00 | 0.00 | 94 | 1016.5 | |
| 20260902104602 | 75 | 0.0 | 0.0 | 0.00 | 0.00 | 0.00 | 93 | 1016.6 | |
| 20260902104059 | 75 | 0.0 | 0.0 | 0.00 | 0.00 | 0.00 | 93 | 1016.5 | |
| 20260902103558 | 75 | 0.0 | 0.0 | 0.00 | 0.00 | 0.00 | 92 | 1016.4 | |
| 20260902103102 | 75 | 0.0 | 0.0 | 0.00 | 0.00 | 0.00 | 92 | 1016.4 | |
| 20260902102555 | 75 | 0.0 | 0.0 | 0.00 | 0.00 | 0.00 | 93 | 1016.4 | |
| 20260902102052 | 75 | 0.0 | 0.0 | 0.00 | 0.00 | 0.00 | 94 | 1016.3 | |
| 20260902101551 | 75 | 0.0 | 0.0 | 0.00 | 0.00 | 0.00 | 95 | 1016.2 | |
| 20260902100949 | 75 | 0.0 | 0.0 | 0.00 | 0.00 | 0.00 | 96 | 1016.2 | |
| 20260902100548 | 74 | 0.0 | 0.0 | 0.00 | 0.00 | 0.00 | 96 | 1016.2 | |
| 20260902100046 | 74 | 0.0 | 0.0 | 0.00 | 0.00 | 0.00 | 96 | 1016.1 | |
| 20260902095445 | 75 | 0.0 | 0.0 | 0.00 | 0.00 | 0.00 | 95 | 1016.1 | |
| 20260902094943 | 75 | 0.0 | 0.0 | 0.00 | 0.00 | 0.00 | 95 | 1016.0 | |
| 20260902094441 | 75 | 0.0 | 0.0 | 0.00 | 0.00 | 0.00 | 95 | 1016.1 | |
| 20260902093939 | 75 | 0.0 | 0.0 | 0.00 | 0.00 | 0.00 | 95 | 1016.1 | |
| 20260902093458 | 75 | 0.0 | 0.0 | 0.00 | 0.00 | 0.00 | 94 | 1016.1 | |
| 20260902092936 | 75 | 0.0 | 0.0 | 0.00 | 0.00 | 0.00 | 93 | 1016.0 | |
| 20260902092334 | 76 | 0.0 | 0.0 | 0.00 | 0.00 | 0.00 | 93 | 1016.0 | |
| 20260902091853 | 76 | 0.0 | 0.0 | 0.00 | 0.00 | 0.00 | 92 | 1016.0 | |
| 20260902091331 | 76 | 0.0 | 0.0 | 0.00 | 0.00 | 0.00 | 92 | 1015.9 | |
| 20260902090930 | 77 | 0.0 | 0.0 | 0.00 | 0.00 | 0.00 | 92 | 1015.8 | |
| 20260902090328 | 77 | 0.0 | 0.0 | 0.00 | 0.00 | 0.00 | 91 | 1015.8 | |
| 20260902085826 | 77 | 0.0 | 0.0 | 0.00 | 0.00 | 0.00 | 91 | 1015.7 | |
| 20260902085345 | 77 | 0.0 | 0.0 | 0.00 | 0.00 | 0.00 | 90 | 1015.7 | |
| 20260902084823 | 77 | 0.0 | 0.0 | 0.00 | 0.00 | 0.00 | 90 | 1015.7 | |
| 20260902084321 | 77 | 0.0 | 0.0 | 0.00 | 0.00 | 0.00 | 90 | 1015.7 | |
| 20260902083839 | 77 | 0.0 | 0.0 | 0.00 | 0.00 | 0.00 | 91 | 1015.6 | |
| 20260902083339 | 77 | 0.0 | 0.0 | 0.00 | 0.00 | 0.00 | 91 | 1015.6 | |
| 20260902082916 | 77 | 0.0 | 0.0 | 0.00 | 0.00 | 0.00 | 92 | 1015.7 | |
| 20260902082214 | 77 | 0.0 | 0.0 | 0.00 | 0.00 | 0.00 | 92 | 1015.7 | |
| 20260902081712 | 77 | 0.0 | 0.0 | 0.00 | 0.00 | 0.00 | 92 | 1015.7 | |
| 20260902081432 | 77 | 0.0 | 0.0 | 0.00 | 0.00 | 0.00 | 92 | 1015.7 | |
| 20260902080709 | 77 | 0.0 | 0.0 | 0.00 | 0.00 | 0.00 | 92 | 1015.7 | |
| 20260902080208 | 76 | 0.0 | 0.0 | 0.00 | 0.00 | 0.00 | 93 | 1015.6 | |
| 20260902075706 | 76 | 0.0 | 0.0 | 0.00 | 0.00 | 0.00 | 93 | 1015.7 | |
| 20260902075124 | 76 | 0.0 | 0.0 | 0.00 | 0.00 | 0.00 | 94 | 1015.7 | |
| 20260902074522 | 76 | 0.0 | 0.0 | 0.00 | 0.00 | 0.00 | 94 | 1015.7 | |
| 20260902074001 | 76 | 0.0 | 0.0 | 0.00 | 0.00 | 0.00 | 95 | 1015.7 | |
| 20260902073559 | 76 | 0.0 | 0.0 | 0.00 | 0.00 | 0.00 | 96 | 1015.7 | |
| 20260902072957 | 76 | 0.0 | 0.0 | 0.00 | 0.00 | 0.00 | 96 | 1015.7 | |
| 20260902072515 | 76 | 0.0 | 0.0 | 0.00 | 0.00 | 0.00 | 97 | 1015.6 | |
| 20260902071954 | 75 | 0.0 | 0.0 | 0.00 | 0.00 | 0.00 | 97 | 1015.6 | |
| 20260902071453 | 75 | 0.0 | 0.0 | 0.00 | 0.00 | 0.00 | 98 | 1015.5 | |
| 20260902070950 | 75 | 0.0 | 0.0 | 0.00 | 0.00 | 0.00 | 98 | 1015.4 | |
| 20260902070449 | 75 | 0.0 | 0.0 | 0.00 | 0.00 | 0.00 | 98 | 1015.5 | |
| 20260902065947 | 74 | 0.0 | 0.0 | 0.00 | 0.00 | 0.00 | 98 | 1015.5 | |
| 20260902065406 | 73 | 0.0 | 0.0 | 0.00 | 0.00 | 0.00 | 97 | 1015.6 | |
| 20260902064844 | 73 | 0.0 | 0.0 | 0.00 | 0.00 | 0.00 | 98 | 1015.5 | |
| 20260902064343 | 73 | 0.0 | 0.0 | 0.00 | 0.00 | 0.00 | 98 | 1015.4 | |
| 20260902063840 | 73 | 0.0 | 0.0 | 0.00 | 0.00 | 0.00 | 98 | 1015.3 | |
| 20260902063339 | 73 | 0.0 | 0.0 | 0.00 | 0.00 | 0.00 | 97 | 1015.4 | |
| 20260902062938 | 73 | 0.0 | 0.0 | 0.00 | 0.00 | 0.00 | 97 | 1015.5 | |
| 20260902062336 | 73 | 0.0 | 0.0 | 0.00 | 0.00 | 0.00 | 97 | 1015.5 | |
| 20260902061734 | 73 | 0.0 | 0.0 | 0.00 | 0.00 | 0.00 | 97 | 1015.5 | |
| 20260902061212 | 73 | 0.0 | 0.0 | 0.00 | 0.00 | 0.00 | 97 | 1015.6 | |
| 20260902060530 | 73 | 0.0 | 0.0 | 0.00 | 0.00 | 0.00 | 97 | 1015.6 | |
| 20260902060027 | 73 | 0.0 | 0.0 | 0.00 | 0.00 | 0.00 | 97 | 1015.7 | |
| 20260902055526 | 73 | 0.0 | 0.0 | 0.00 | 0.00 | 0.00 | 97 | 1015.7 | |
| 20260902055025 | 73 | 0.0 | 0.0 | 0.00 | 0.00 | 0.00 | 97 | 1015.7 | |
| 20260902054524 | 73 | 0.0 | 0.0 | 0.00 | 0.00 | 0.00 | 97 | 1015.8 | |
| 20260902054001 | 73 | 0.0 | 0.0 | 0.00 | 0.00 | 0.00 | 97 | 1015.9 | |
| 20260902053439 | 73 | 0.0 | 0.0 | 0.00 | 0.00 | 0.00 | 97 | 1015.9 | |
| 20260902052818 | 73 | 0.0 | 0.0 | 0.00 | 0.00 | 0.00 | 96 | 1016.0 | |
| 20260902052115 | 72 | 0.0 | 0.0 | 0.00 | 0.00 | 0.00 | 96 | 1016.0 | |
| 20260902051613 | 72 | 0.0 | 0.0 | 0.00 | 0.00 | 0.00 | 96 | 1016.1 | |
| 20260902051112 | 72 | 0.0 | 0.0 | 0.00 | 0.00 | 0.00 | 96 | 1016.0 | |
| 20260902050711 | 72 | 0.0 | 0.0 | 0.00 | 0.00 | 0.00 | 95 | 1016.0 | |
| 20260902050128 | 73 | 0.0 | 0.0 | 0.00 | 0.00 | 0.00 | 95 | 1016.1 | |
| 20260902045607 | 73 | 0.0 | 0.0 | 0.00 | 0.00 | 0.00 | 95 | 1016.0 | |
| 20260902045045 | 73 | 0.0 | 0.0 | 0.00 | 0.00 | 0.00 | 95 | 1015.9 | |
| 20260902044644 | 73 | 0.0 | 0.0 | 0.00 | 0.00 | 0.00 | 95 | 1015.9 | |
| 20260902044102 | 73 | 0.0 | 0.0 | 0.00 | 0.00 | 0.00 | 95 | 1015.9 | |
| 20260902043601 | 73 | 0.0 | 0.0 | 0.00 | 0.00 | 0.00 | 94 | 1015.9 |